RH
76 84 86 84 85 90 92 95 95 87 77 62 67 62 73 70 68 78 75 81 85 82 80 82 82 82 81 78 81 72 74 71 66 68 66 65 62 57
60 66 72 78 81 90 93 94 96 95 96 70 63 62 66 69 70 73 76 86 85 86 87 87 87 86 84 82 86 77 77 72 68 68 65 61 61 62
64 67 70 70 76 74 82 91 91 94 94 79 73 68 73 77 73 73 80 78 83 89 88 88 86 86 89 89 87 79 80 72 71 68 65 62 62 62
68 72 74 58 74 75 81 83 86 88 93 93 80 79 81 81 84 87 79 79 87 83 90 88 88 90 90 89 88 82 80 82 76 70 67 64 65 65
72 75 75 76 81 84 86 82 83 78 85 87 86 78 77 80 83 85 87 91 86 88 88 92 90 89 86 87 88 86 82 89 83 79 72 68 66 66
77 79 78 80 82 80 79 79 69 74 78 83 80 83 82 75 82 86 83 88 89 85 93 95 94 92 90 85 84 90 94 90 84 80 77 72 73 70
79 74 76 80 81 79 65 70 73 77 79 80 82 80 79 81 80 74 81 84 83 94 98 99 99 99 97 93 91 93 92 88 82 79 74 70 67 67
81 76 75 80 78 74 67 77 82 89 88 87 86 86 83 80 75 81 82 92 95 98 99 99 99 100 99 99 94 94 92 88 85 82 71 69 72 70
80 79 74 66 80 69 69 80 79 83 83 85 91 89 87 82 82 87 91 89 100 100 96 100 99 99 99 98 92 91 89 82 77 76 64 70 71 67
79 77 78 78 76 72 71 82 78 82 84 88 87 91 96 97 98 97 97 99 99 99 96 100 100 100 99 97 89 87 88 92 92 73 64 70 69 68
70 71 74 76 74 75 82 87 83 86 85 89 93 92 92 92 92 96 99 99 100 100 99 99 100 99 98 98 97 94 96 94 80 65 68 70 70 71
73 66 66 66 69 73 80 86 94 96 98 99 99 98 97 94 93 97 98 100 100 100 100 99 100 99 99 99 99 98 98 86 72 66 68 72 75 92
71 70 66 65 70 78 81 82 88 93 98 100 99 99 99 99 98 98 99 98 100 100 98 99 99 99 98 98 99 99 98 98 87 78 69 67 80 90
70 70 73 74 80 80 82 80 86 92 99 99 100 99 99 99 99 98 99 99 99 99 99 99 100 98 97 99 97 98 99 99 96 91 88 68 76 79
63 66 74 76 75 75 78 81 90 98 99 99 99 99 97 97 96 97 97 96 96 98 100 100 99 98 95 95 96 98 97 98 92 93 93 88 87 86
62 66 69 71 72 75 74 88 97 98 100 100 99 98 97 98 96 96 97 97 97 97 98 99 99 98 99 97 93 97 96 98 98 93 88 88 86 85
67 76 76 73 74 76 84 95 99 100 99 99 98 98 98 96 94 96 98 99 98 98 98 98 98 98 98 98 98 96 97 97 96 93 86 84 78 77
76 84 85 82 79 79 82 92 99 100 99 99 99 98 98 98 98 98 99 98 98 98 98 98 97 97 96 96 96 96 97 95 97 90 83 87 87 79
84 91 93 87 82 85 93 97 98 99 99 99 98 98 99 98 95 98 98 96 98 98 98 99 99 98 96 97 96 95 95 96 97 95 88 94 92 84
81 84 87 87 83 87 94 97 99 99 99 98 98 98 98 97 98 98 97 99 99 99 98 98 98 98 97 96 97 98 94 95 89 95 97 91 83 67
85 89 86 87 88 88 97 99 99 98 98 98 98 98 96 98 98 98 95 90 94 98 97 97 98 94 96 96 95 96 97 74 77 92 93 95 95 97
86 90 88 91 97 97 98 99 99 99 98 98 98 98 98 96 97 97 98 98 98 96 97 97 97 98 98 91 95 96 96 89 72 72 74 76 91 98
90 92 90 97 98 98 99 99 99 98 98 98 98 97 96 96 96 96 98 96 95 96 95 96 97 97 96 95 93 96 96 95 92 94 88 73 76 76
Wind_Speed
6 5 4 4 4 3 4 4 7 15 13 11 10 9 8 9 9 6 6 8 14 16 17 18 16 11 15 14 16 11 12 12 11 10 8 5 2 2
5 7 5 4 5 4 4 4 4 10 16 8 9 11 10 9 13 11 9 12 13 18 21 20 19 15 15 13 16 11 15 15 13 11 8 6 3 2
5 5 6 6 4 6 5 4 5 6 13 12 10 10 11 11 11 11 11 11 9 17 20 18 16 14 11 12 15 13 17 16 15 12 9 7 5 4
6 6 6 7 6 5 4 7 7 7 10 20 13 12 11 9 10 11 11 10 10 14 19 19 16 14 11 13 12 13 20 16 15 13 11 8 6 6
6 6 7 6 6 4 5 8 8 8 9 12 16 12 12 9 11 9 10 10 10 16 19 19 17 12 8 10 9 9 15 14 13 10 12 9 7 7
7 6 6 6 6 9 9 10 12 12 10 11 13 15 11 12 10 11 12 7 10 9 12 6 8 8 6 7 10 1 14 20 18 15 8 7 8 11
7 8 7 8 12 12 11 12 13 11 10 11 12 12 13 11 12 10 13 10 11 7 6 4 4 2 3 1 4 18 18 19 18 16 11 7 7 10
7 9 9 10 8 17 20 20 16 13 15 12 13 13 16 13 12 13 12 11 9 2 2 2 3 2 2 3 15 18 16 19 18 15 13 11 12 12
7 7 9 8 10 12 19 19 17 19 21 18 18 14 17 15 16 15 14 13 2 1 6 3 3 2 1 3 17 20 21 19 16 15 11 12 13 12
6 8 9 9 10 15 17 15 15 13 12 11 13 11 8 8 5 5 4 3 5 6 4 3 3 4 5 7 17 18 19 18 15 13 13 14 13 12
8 9 10 12 17 22 17 17 17 12 8 11 10 10 12 14 7 3 3 2 2 1 3 3 1 5 6 6 7 15 16 15 13 13 14 15 14 14
9 8 16 19 24 26 18 17 18 12 6 4 4 5 8 8 13 6 1 2 1 1 1 3 2 3 3 3 4 4 4 12 13 14 15 16 14 5
10 10 9 23 27 28 27 16 18 10 7 4 3 2 3 4 4 4 4 0 1 1 4 3 2 2 3 4 2 3 3 3 2 6 14 14 14 11
13 11 14 27 29 28 24 27 25 16 2 3 3 1 1 2 3 3 4 3 3 1 4 4 3 3 4 3 3 1 3 3 3 3 2 9 15 15
11 19 30 30 30 24 25 26 17 6 3 4 3 1 1 1 2 0 2 3 4 5 3 1 5 6 3 5 5 3 4 2 2 4 3 4 3 3
17 15 23 27 26 22 18 12 10 6 3 2 1 1 1 1 1 1 1 1 1 2 5 4 4 6 3 5 8 6 5 4 3 3 4 3 3 4
21 12 11 12 13 12 10 10 4 2 3 3 2 2 1 1 0 1 1 1 2 1 2 4 8 10 7 5 5 7 5 6 5 5 5 4 3 3
12 10 10 10 12 12 13 10 4 4 3 3 3 2 2 1 1 0 2 2 2 2 2 1 6 6 4 9 10 7 5 5 5 4 4 4 2 2
9 10 10 11 12 11 10 10 7 3 3 3 3 3 2 2 2 2 3 3 2 2 2 2 0 2 4 3 1 8 6 5 5 4 4 2 3 2
9 10 11 11 12 11 10 9 3 4 3 3 4 3 3 2 2 3 3 3 2 2 2 3 3 3 4 5 4 2 8 7 5 3 3 3 4 7
10 11 11 12 11 11 9 5 4 4 4 4 4 3 3 2 3 3 4 8 7 2 4 3 4 11 8 6 6 4 2 8 4 4 3 3 2 1
11 12 12 12 11 10 8 4 4 5 4 4 4 3 2 3 3 3 3 3 4 3 3 2 3 2 3 5 8 6 4 5 10 13 9 5 5 4
12 12 13 11 10 8 4 3 4 4 4 4 4 3 4 3 3 4 5 5 6 5 4 4 2 4 5 6 11 5 9 7 5 6 5 11 10 12
Wind_Direction
335 335 330 311 316 301 300 294 294 304 297 304 302 305 314 314 305 273 252 236 229 237 242 255 261 256 257 266 261 247 199 173 175 165 142 124 95 38
356 350 347 337 322 306 295 290 287 292 295 300 295 297 291 290 295 292 269 243 237 228 233 224 233 235 250 262 257 217 189 183 174 165 153 143 120 104
341 342 323 326 330 331 318 292 279 278 288 294 289 289 287 283 282 283 274 264 260 247 239 230 237 239 242 259 259 208 203 185 169 164 158 143 135 130
333 332 322 325 316 312 313 314 317 317 304 301 302 299 288 286 279 282 278 256 252 242 234 232 227 228 233 244 262 227 210 177 167 158 149 151 132 120
318 314 307 314 315 322 327 312 305 299 294 291 298 300 296 290 284 274 273 259 254 247 237 223 215 220 240 263 274 301 215 145 133 139 143 144 142 130
306 302 305 314 311 309 306 306 312 309 300 291 292 299 300 300 288 291 282 261 266 254 234 199 188 209 249 282 298 281 146 137 135 127 103 110 114 116
311 308 299 292 287 290 316 312 305 301 296 292 287 289 292 295 287 290 284 277 271 241 201 149 145 158 201 323 204 153 147 141 132 125 116 122 135 127
304 308 305 300 299 323 313 301 298 294 290 288 287 288 290 294 292 286 282 274 278 254 139 80 54 154 97 134 132 124 119 124 126 120 142 153 129 114
300 308 316 311 311 311 312 305 308 299 287 285 282 283 289 290 293 289 275 269 205 12 84 55 351 61 69 185 146 136 131 131 125 126 138 134 123 113
298 303 302 303 298 311 318 309 309 306 310 303 279 292 307 314 331 354 4 68 52 43 70 87 354 38 68 82 111 116 120 120 126 137 139 129 123 120
311 309 308 309 308 315 317 310 307 297 292 300 337 355 359 6 357 21 10 104 92 73 26 95 46 80 52 60 84 107 116 123 130 137 134 129 128 115
301 305 317 311 314 315 311 311 303 288 283 292 304 335 344 347 21 30 167 319 79 100 163 93 140 119 76 21 40 60 112 130 138 136 135 122 108 82
321 317 310 311 312 311 309 302 296 274 261 272 284 306 341 338 4 23 1 47 202 70 161 114 142 102 72 119 61 37 63 64 82 117 124 125 119 114
311 309 306 310 310 310 309 300 295 271 198 249 249 259 302 330 341 20 7 4 5 333 156 127 124 138 125 109 133 88 67 56 85 89 77 124 126 124
304 306 312 312 313 311 306 305 292 261 200 238 232 235 285 289 285 344 32 28 35 15 37 67 127 122 135 126 137 144 121 68 69 100 82 79 82 75
308 306 306 307 308 304 308 305 291 233 184 215 208 196 217 262 287 360 74 27 61 23 18 40 97 138 111 128 137 142 134 147 124 100 98 80 75 81
312 300 302 308 306 305 303 305 270 238 165 142 155 196 217 200 334 352 54 3 64 77 35 54 77 80 68 119 127 138 133 128 126 128 107 104 81 99
307 303 301 300 304 307 307 307 242 212 174 157 149 171 218 159 163 72 45 74 100 93 110 102 122 103 78 45 58 126 117 129 128 121 118 115 87 94
324 311 301 303 304 303 296 300 264 179 150 157 143 155 195 180 152 99 89 94 70 78 36 27 305 119 108 100 49 66 116 125 126 123 132 113 128 139
317 311 306 301 301 298 295 294 206 144 161 156 147 161 181 153 129 123 122 119 110 71 61 34 31 101 125 147 123 64 104 127 143 105 102 77 88 104
312 309 304 298 294 293 292 264 168 164 160 155 151 154 157 135 112 115 132 139 126 77 88 59 28 102 102 98 95 88 56 146 118 119 123 95 109 71
310 308 308 300 298 291 285 208 162 166 154 150 150 146 126 117 123 120 104 99 95 89 92 58 29 42 61 112 117 106 104 80 101 104 90 131 160 167
308 307 309 307 305 297 259 168 157 149 153 147 145 137 128 127 119 110 103 104 114 113 103 86 42 57 80 114 121 116 120 114 99 87 62 80 76 76